Total_Precipitation_Accumulation
0.05 0.11 0.14 0.13 0.16 0.20 0.19 0.30 0.41 0.42 0.39 0.42 0.55 0.75 0.99 1.08 1.30 1.58 1.69 1.79 1.99 2.16 2.43 2.86 3.56 4.60 5.16 5.83 5.73 5.31 5.03 4.83 4.80 4.79 4.79 4.74 4.78 4.94 5.06 4.96 4.74 4.72 4.57 4.68
0.09 0.11 0.10 0.09 0.12 0.14 0.16 0.26 0.36 0.44 0.48 0.51 0.71 0.89 1.16 1.29 1.42 1.55 1.60 1.76 1.83 2.02 2.60 3.26 3.83 4.43 4.88 5.04 5.21 5.43 5.38 5.31 5.06 5.08 5.40 5.74 5.92 5.75 5.75 5.69 5.70 5.54 5.36 5.33
0.12 0.10 0.06 0.07 0.11 0.10 0.15 0.23 0.30 0.43 0.55 0.70 0.98 1.31 1.40 1.43 1.62 1.63 1.63 1.71 1.80 2.01 2.34 3.02 3.56 4.00 4.54 4.91 4.99 5.27 5.31 5.49 5.78 6.01 6.15 6.46 6.66 6.43 6.19 5.85 5.72 5.48 5.21 5.18
0.07 0.06 0.06 0.09 0.11 0.10 0.14 0.16 0.23 0.34 0.56 0.85 1.07 1.63 1.72 1.67 1.77 1.79 1.85 1.89 1.93 2.17 2.31 2.62 3.05 3.37 3.80 4.16 4.47 4.87 5.06 5.26 5.84 6.62 6.93 6.93 6.98 6.77 6.40 6.07 5.76 5.44 5.11 4.86
0.07 0.06 0.08 0.10 0.09 0.08 0.10 0.12 0.20 0.30 0.48 0.85 1.03 1.41 1.95 1.93 1.97 1.91 1.96 2.03 2.03 2.04 2.15 2.32 2.46 2.86 3.40 3.65 3.91 4.42 4.83 5.29 5.94 6.50 6.89 7.10 6.96 6.67 6.35 5.89 5.56 5.25 4.87 4.48
0.07 0.07 0.08 0.09 0.09 0.08 0.09 0.16 0.28 0.38 0.62 1.08 0.93 1.17 1.97 2.15 2.12 1.99 1.97 2.06 2.08 1.94 1.97 2.11 2.32 2.58 2.92 3.27 3.58 3.92 4.46 5.14 5.58 5.94 6.30 6.49 6.53 6.38 6.05 5.58 5.28 4.95 4.62 4.26
0.13 0.12 0.08 0.09 0.10 0.12 0.17 0.43 0.87 1.07 1.22 1.20 0.82 1.20 2.02 2.19 2.17 2.09 2.07 2.28 2.18 1.91 1.93 2.23 2.36 2.59 2.84 3.17 3.54 3.89 4.30 4.84 5.11 5.20 5.37 5.65 5.84 5.81 5.64 5.40 5.09 4.69 4.23 3.76
0.23 0.21 0.13 0.10 0.13 0.16 0.20 0.42 0.96 1.25 1.29 1.25 1.19 1.81 2.29 2.20 2.15 2.17 2.12 2.18 2.14 2.01 2.14 2.29 2.32 2.54 2.86 3.10 3.29 3.66 3.88 4.39 4.65 4.51 4.62 4.91 5.14 5.07 4.90 4.65 4.19 3.81 3.50 3.24
0.29 0.27 0.13 0.12 0.13 0.14 0.20 0.32 0.44 0.77 0.93 1.28 1.78 2.31 2.68 2.67 2.56 2.39 2.23 2.03 2.00 2.01 2.19 2.30 2.21 2.33 2.59 2.89 3.07 3.25 3.41 3.77 4.01 3.97 4.03 4.05 4.03 4.01 3.92 3.68 3.33 2.99 2.79 2.59
0.21 0.26 0.15 0.13 0.16 0.19 0.22 0.27 0.45 0.86 1.24 1.59 1.95 2.67 3.27 3.10 2.79 2.51 2.31 2.02 1.96 1.87 1.92 2.02 2.10 2.21 2.15 2.25 2.58 2.85 2.93 3.05 3.16 3.15 3.16 3.18 3.25 3.29 3.20 2.92 2.56 2.44 2.40 2.28
0.20 0.30 0.25 0.23 0.26 0.30 0.33 0.38 0.47 0.71 0.88 1.39 1.99 2.66 2.77 2.87 2.65 2.46 2.21 1.96 1.79 1.70 1.77 1.91 2.02 2.08 1.96 1.90 2.04 2.30 2.55 2.65 2.73 2.78 2.82 2.73 2.71 2.62 2.55 2.43 2.17 2.15 2.15 2.04
0.26 0.38 0.44 0.36 0.29 0.27 0.33 0.38 0.49 0.84 0.91 1.06 1.68 2.53 2.41 2.69 2.71 2.61 2.36 2.11 2.03 1.92 1.93 1.97 2.15 2.10 1.98 2.04 2.04 2.05 2.22 2.31 2.39 2.46 2.58 2.59 2.51 2.31 2.21 2.13 2.03 1.94 1.86 1.81
0.36 0.55 0.81 0.88 0.70 0.46 0.41 0.42 0.48 0.55 0.77 1.11 1.76 2.67 2.53 2.53 2.57 2.52 2.30 2.27 2.27 2.25 2.26 2.23 2.27 2.19 2.09 2.07 1.96 1.82 1.90 2.05 2.16 2.29 2.32 2.28 2.20 2.06 1.95 1.93 1.94 1.83 1.74 1.64
0.39 0.61 0.93 1.32 1.14 0.75 0.61 0.52 0.53 0.63 0.98 1.23 1.64 2.18 2.50 2.44 2.50 2.60 2.52 2.33 2.33 2.45 2.46 2.39 2.38 2.35 2.24 2.14 1.97 1.83 1.80 1.80 1.78 1.92 2.05 2.04 2.01 1.98 1.89 1.77 1.74 1.71 1.66 1.59
0.49 0.68 0.64 0.64 0.63 0.63 0.61 0.57 0.57 0.67 0.78 1.23 1.62 2.07 2.45 2.36 2.49 2.77 2.77 2.60 2.50 2.57 2.56 2.50 2.55 2.48 2.44 2.39 2.24 2.11 1.95 1.83 1.78 1.77 1.76 1.84 1.96 1.96 1.89 1.81 1.76 1.71 1.62 1.51
0.55 0.69 0.68 0.63 0.56 0.60 0.65 0.69 0.64 0.66 0.83 1.21 1.62 2.15 2.27 2.28 2.39 2.54 2.69 2.63 2.51 2.52 2.59 2.64 2.77 2.71 2.66 2.61 2.43 2.28 2.14 1.90 1.78 1.78 1.76 1.79 1.84 1.82 1.76 1.72 1.67 1.62 1.55 1.54
0.58 0.75 0.90 0.81 0.59 0.85 1.22 1.05 0.92 0.92 1.02 1.34 1.78 2.00 1.95 2.08 2.34 2.47 2.55 2.68 2.67 2.77 2.91 2.92 2.84 2.83 2.78 2.73 2.77 2.75 2.48 2.18 2.06 1.96 1.82 1.77 1.71 1.64 1.60 1.48 1.47 1.54 1.55 1.53
0.63 0.82 0.96 1.02 1.11 1.70 1.57 1.08 1.01 1.15 1.31 1.40 1.52 1.58 1.79 2.04 2.24 2.39 2.57 2.77 2.82 2.83 2.81 2.85 2.76 2.78 2.78 2.75 2.74 2.73 2.66 2.44 2.15 2.02 1.82 1.67 1.64 1.59 1.59 1.55 1.52 1.57 1.59 1.51
0.44 0.77 1.09 1.28 1.63 1.73 1.60 1.16 1.17 1.41 1.78 1.58 1.62 1.62 1.75 1.90 2.11 2.50 2.54 2.61 2.83 2.71 2.63 2.72 2.79 2.81 2.80 2.73 2.58 2.51 2.43 2.36 2.25 1.99 1.72 1.56 1.54 1.51 1.50 1.52 1.51 1.55 1.58 1.50
0.50 0.72 1.23 1.54 1.92 2.12 1.87 1.12 0.98 1.48 2.53 1.91 1.80 1.83 1.83 1.98 2.52 2.64 2.35 2.26 2.36 2.46 2.60 2.74 2.83 2.88 2.85 2.80 2.50 2.35 2.23 2.09 1.90 1.64 1.49 1.43 1.45 1.40 1.37 1.42 1.47 1.49 1.53 1.49
1.02 1.12 1.37 1.70 2.15 2.22 1.39 0.92 1.07 2.14 2.68 2.07 1.93 1.92 1.96 2.19 2.35 2.15 1.97 2.03 2.21 2.40 2.54 2.65 2.70 2.73 2.66 2.63 2.40 2.28 2.07 1.90 1.59 1.35 1.30 1.36 1.37 1.33 1.27 1.32 1.36 1.44 1.43 1.45
1.43 1.63 1.73 1.92 2.38 2.48 1.26 1.08 1.56 1.95 1.65 1.61 1.62 1.58 1.63 1.73 1.79 1.83 1.87 1.95 2.01 2.17 2.36 2.46 2.51 2.54 2.43 2.32 2.20 2.07 1.89 1.61 1.41 1.28 1.23 1.31 1.39 1.23 1.13 1.22 1.22 1.27 1.43 1.39
1.46 1.65 1.90 2.16 2.55 2.13 1.41 1.38 1.41 1.46 1.47 1.42 1.49 1.43 1.43 1.51 1.55 1.64 1.83 1.94 1.96 1.92 2.10 2.16 2.07 2.01 2.07 2.00 1.91 1.81 1.61 1.41 1.31 1.34 1.38 1.38 1.36 1.29 1.26 1.29 1.25 1.27 1.36 1.37
1.51 1.31 1.65 1.94 2.06 1.72 1.41 1.31 1.33 1.25 1.20 1.23 1.38 1.38 1.28 1.26 1.20 1.30 1.46 1.64 1.77 1.75 1.73 1.81 1.78 1.74 1.80 1.72 1.59 1.52 1.37 1.32 1.32 1.37 1.46 1.55 1.42 1.28 1.28 1.36 1.25 1.24 1.24 1.26
1.56 1.52 1.80 2.06 1.99 1.76 1.54 1.34 1.29 1.30 1.23 1.26 1.34 1.26 1.12 1.02 1.00 1.04 1.19 1.31 1.43 1.54 1.48 1.48 1.58 1.63 1.56 1.49 1.40 1.33 1.24 1.23 1.37 1.41 1.37 1.44 1.38 1.33 1.34 1.32 1.19 1.12 1.09 1.15
1.46 1.67 2.02 2.26 1.92 1.84 1.68 1.32 1.15 1.21 1.23 1.18 1.12 1.07 1.03 0.97 0.92 0.93 1.10 1.21 1.28 1.34 1.37 1.41 1.46 1.45 1.40 1.35 1.28 1.21 1.13 1.18 1.36 1.42 1.37 1.30 1.26 1.27 1.22 1.26 1.24 1.18 1.13 1.11